DW4360 Weather Reports


time (UTC)temp
F
wind
direction
speed
knots
gust
knots
rain 1hr
in
rain 24hr
in
rain mn
in
humidity
%
barometer
mb
20260505164613 59 195 0.0 0.0 0.00 0.00 0.00 80 1015.3
20260505163612 58 265 0.0 0.0 0.00 0.00 0.00 79 1015.2
20260505162611 58 217 0.0 0.0 0.00 0.00 0.00 79 1015.2
20260505161610 58 217 0.0 0.0 0.00 0.00 0.00 81 1015.1
20260505160609 58 217 0.0 0.0 0.00 0.00 0.00 81 1015.1
20260505152605 56 217 0.0 0.0 0.00 0.00 0.00 84 1015.0
20260505150603 56 217 0.0 0.0 0.00 0.00 0.00 85 1015.0
20260505124549 55 217 0.0 0.0 0.00 0.00 0.00 84 1013.9
20260505123548 55 217 0.0 0.0 0.00 0.00 0.00 84 1013.9
20260505122547 55 217 0.0 0.0 0.00 0.00 0.00 84 1013.9
20260505121546 55 217 0.0 0.0 0.00 0.00 0.00 84 1013.9
20260505120545 55 217 0.0 0.0 0.00 0.00 0.00 84 1013.8
20260505112541 55 217 0.0 0.0 0.00 0.00 0.00 85 1013.7
20260505111540 55 217 0.0 0.0 0.00 0.00 0.00 84 1013.8
20260505110539 55 217 0.0 0.0 0.00 0.00 0.00 84 1013.7
20260505095532 55 216 0.0 0.0 0.00 0.00 0.00 83 1013.3
20260505094532 55 209 0.0 0.0 0.00 0.00 0.00 83 1013.2
20260505092528 56 249 0.0 0.0 0.00 0.00 0.00 81 1013.1
20260505091527 56 250 0.0 0.0 0.00 0.00 0.00 81 1013.0
20260505090526 56 250 0.0 0.0 0.00 0.00 0.00 80 1012.9
20260505085526 57 261 0.0 0.0 0.00 0.00 0.00 80 1012.8
20260505081522 58 270 0.0 0.0 0.00 0.00 0.00 78 1012.6
20260505080521 59 270 0.0 0.0 0.00 0.00 0.00 78 1012.6
20260505075519 59 270 0.0 0.0 0.00 0.00 0.00 78 1012.5
20260505074518 59 270 0.0 0.0 0.00 0.00 0.00 78 1012.4
20260505073517 59 270 0.0 0.0 0.00 0.00 0.00 76 1012.2
20260505071515 60 270 0.0 0.0 0.00 0.00 0.00 76 1012.0
20260505070515 60 272 0.0 0.0 0.00 0.00 0.00 76 1011.9
20260505065514 60 263 0.0 0.0 0.00 0.00 0.00 76 1011.8
20260505064512 61 321 0.0 0.0 0.00 0.00 0.00 76 1011.7
20260505063511 61 321 0.0 0.0 0.00 0.00 0.00 75 1011.5
20260505062510 62 327 0.0 0.0 0.00 0.00 0.00 74 1011.4
20260505061509 62 329 0.0 0.0 0.00 0.00 0.00 74 1011.2
20260505060509 63 329 0.0 0.0 0.00 0.00 0.00 73 1011.1
20260505055507 63 329 0.0 0.0 0.00 0.00 0.00 73 1011.2
20260505053505 64 329 0.0 0.0 0.00 0.00 0.00 71 1011.0
20260505052504 65 331 0.0 0.0 0.00 0.00 0.00 70 1010.9
20260505050502 66 331 0.0 0.0 0.00 0.00 0.00 69 1010.7
20260505041457 68 281 3.5 0.0 0.00 0.00 0.00 68 1010.0
20260505035455 68 210 0.0 0.0 0.00 0.00 0.00 70 1009.7
20260505033453 69 209 0.0 0.0 0.00 0.00 0.00 70 1009.3
20260505032452 69 205 0.0 0.0 0.00 0.00 0.00 69 1009.1
20260505031451 70 204 0.9 0.0 0.00 0.00 0.00 68 1009.0
20260505030450 70 225 0.0 0.0 0.00 0.00 0.00 68 1008.9
20260505023447 71 249 0.0 0.0 0.00 0.00 0.00 66 1008.7
20260505022446 71 249 2.6 0.0 0.00 0.00 0.00 66 1008.8
20260505021446 72 197 0.9 0.0 0.00 0.00 0.00 66 1008.7
20260505020444 72 195 0.0 0.0 0.00 0.00 0.00 65 1008.7
20260505015443 72 254 0.0 0.0 0.00 0.00 0.00 63 1008.7
20260505014442 73 247 0.0 0.0 0.00 0.00 0.00 63 1008.7
20260505013441 73 210 0.0 0.0 0.00 0.00 0.00 63 1008.8
20260505012440 73 203 0.0 0.0 0.00 0.00 0.00 62 1008.9
20260505011439 74 218 0.0 0.0 0.00 0.00 0.00 61 1009.0
20260505010438 74 219 0.0 0.0 0.00 0.00 0.00 61 1008.9
20260505005437 74 230 0.0 0.0 0.00 0.00 0.00 59 1009.0
20260505004436 75 229 2.6 0.0 0.00 0.00 0.00 60 1009.1
20260505003435 76 225 3.5 0.0 0.00 0.00 0.00 57 1009.1
20260505002434 77 247 3.5 0.0 0.00 0.00 0.00 54 1009.1
20260505001432 78 246 3.5 0.0 0.00 0.00 0.00 56 1009.1
20260505000432 78 261 6.1 0.0 0.00 0.00 0.00 54 1009.3
20260504235431 78 219 0.0 0.0 0.00 0.00 0.00 53 1009.3
20260504234429 79 209 2.6 0.0 0.00 0.00 0.00 52 1009.3
20260504233429 79 241 0.0 0.0 0.00 0.00 0.00 53 1009.3
20260504231427 78 227 0.0 0.0 0.00 0.00 0.00 55 1009.5
20260504230425 77 259 0.0 0.0 0.00 0.00 0.00 52 1009.6
20260504225425 76 269 1.7 0.0 0.00 0.00 0.00 55 1009.8
20260504224423 76 240 0.9 0.0 0.00 0.00 0.00 54 1009.8
20260504223422 76 165 0.0 0.0 0.00 0.00 0.00 55 1010.0
20260504222421 76 161 0.0 0.0 0.00 0.00 0.00 55 1010.1
20260504221421 76 223 0.0 0.0 0.00 0.00 0.00 53 1010.2
20260504220420 76 231 0.0 0.0 0.00 0.00 0.00 55 1010.4
20260504215419 76 238 0.0 0.0 0.00 0.00 0.00 55 1010.5
20260504214418 75 252 0.0 0.0 0.00 0.00 0.00 55 1010.6
20260504204412 72 205 0.0 0.0 0.00 0.00 0.00 61 1011.6
20260504203411 72 248 0.0 0.0 0.00 0.00 0.00 60 1011.6
20260504202409 71 198 0.0 0.0 0.00 0.00 0.00 62 1011.7
20260504201408 71 239 0.0 0.0 0.00 0.00 0.00 62 1011.8
20260504200407 70 209 0.0 0.0 0.00 0.00 0.00 64 1012.0
20260504193404 66 179 0.0 0.0 0.00 0.00 0.00 68 1012.2
20260504192403 65 244 0.0 0.0 0.00 0.00 0.00 69 1012.2
20260504191403 64 201 0.0 0.0 0.00 0.00 0.00 71 1012.2
20260504190401 63 248 1.7 0.0 0.00 0.00 0.00 73 1012.3
20260504185401 63 266 2.6 0.0 0.00 0.00 0.00 73 1012.4
20260504184359 62 254 0.0 0.0 0.00 0.00 0.00 74 1012.5
20260504183359 62 181 0.0 0.0 0.00 0.00 0.00 75 1012.4
20260504182358 62 192 6.1 0.0 0.00 0.00 0.00 76 1012.4
20260504181356 61 214 0.0 0.0 0.00 0.00 0.00 78 1012.4
20260504180355 60 206 0.0 0.0 0.00 0.00 0.00 79 1012.5
20260504172351 58 215 0.0 0.0 0.00 0.00 0.00 80 1012.4
20260504171350 58 254 0.9 0.0 0.00 0.00 0.00 81 1012.4